Weather reports worldwide

Advertisment
Alghero, Italy (16520): temperature & dewpoint: 23.09.2020 03:00:00 - 29.09.2020 03:00:00 (CEST)Alghero, Italy (16520): wind speed: 23.09.2020 03:00:00 - 29.09.2020 03:00:00 (CEST)Alghero, Italy (16520): wind direction: 23.09.2020 03:00:00 - 29.09.2020 03:00:00 (CEST)Alghero, Italy (16520): reduced air pressure: 23.09.2020 03:00:00 - 29.09.2020 03:00:00 (CEST)Alghero, Italy (16520): visibility: 23.09.2020 03:00:00 - 29.09.2020 03:00:00 (CEST)Alghero, Italy (16520): precipitation: 23.09.2020 03:00:00 - 29.09.2020 03:00:00 (CEST)
Date & Time tt [°C] td [°C] ff [km/h] ff [kn] dd ppp [hPa] vv [km] rr [mm]
29.09.2020 03:00:00 18,0 14,0 9 5 WSW - 10 -
29.09.2020 02:00:00 16,8 13,7 2 1 - 1017,1 10 -
29.09.2020 01:00:00 18,0 14,0 8 4 W - 10 -
29.09.2020 00:00:00 18,0 13,0 11 6 WNW - 10 -
28.09.2020 23:00:00 18,9 13,2 16 9 WNW 1016,7 10 0,0
28.09.2020 22:00:00 19,0 13,0 18 10 WNW - 10 -
28.09.2020 21:00:00 19,0 13,0 16 9 WNW - 10 -
28.09.2020 20:00:00 18,8 12,9 13 7 WNW 1015,3 10 -
28.09.2020 19:00:00 18,0 14,0 16 9 WNW - 10 -
28.09.2020 18:00:00 19,0 13,0 18 10 WNW - 10 -
28.09.2020 17:00:00 19,7 13,6 24 13 WNW 1013,4 10 0,0
28.09.2020 16:00:00 20,0 15,0 22 12 W - 10 -
28.09.2020 15:00:00 19,0 15,0 18 10 S - 10 -
28.09.2020 14:00:00 19,5 14,5 22 12 W 1012,6 10 -
28.09.2020 13:00:00 18,0 15,0 16 9 WNW - 9 -
28.09.2020 12:00:00 - - - - - - - -
28.09.2020 11:00:00 16,9 14,5 15 8 W 1012,0 10 0,0
28.09.2020 10:00:00 17,0 13,0 11 6 NNW - 10 -
28.09.2020 09:00:00 16,0 13,0 16 9 WNW - 10 -
28.09.2020 08:00:00 15,3 12,7 9 5 NNW 1010,2 10 -
28.09.2020 07:00:00 15,0 13,0 15 8 NW - 10 -
28.09.2020 06:00:00 14,0 12,0 5 3 - - 10 -
28.09.2020 05:00:00 14,4 12,8 13 7 WNW 1009,8 10 0,0
28.09.2020 04:00:00 15,0 13,0 24 13 W - 10 -
28.09.2020 03:00:00 14,0 13,0 21 11 W - 7 -
28.09.2020 02:00:00 14,1 12,0 4 2 - 1010,3 10 -
28.09.2020 01:00:00 13,0 12,0 5 3 W - 10 -
28.09.2020 00:00:00 13,0 11,0 15 8 W - 8 -
27.09.2020 23:00:00 13,5 11,6 9 5 NW 1010,2 10 0,0
27.09.2020 22:00:00 13,0 12,0 13 7 WNW - 8 -
27.09.2020 21:00:00 17,0 10,0 13 7 NW - 10 -
27.09.2020 20:00:00 17,2 9,7 18 10 NW 1007,9 10 -
27.09.2020 19:00:00 18,0 11,0 18 10 NW - 10 -
27.09.2020 18:00:00 17,0 12,0 11 6 WNW - 10 -
27.09.2020 17:00:00 18,1 11,0 18 10 N 1004,2 10 0,0
27.09.2020 16:00:00 17,0 12,0 9 5 NNW - 10 -
27.09.2020 15:00:00 19,0 9,0 18 10 NW - 10 -
27.09.2020 14:00:00 17,9 9,0 22 12 W 1002,5 10 -
27.09.2020 13:00:00 18,0 10,0 24 13 W - 10 -
27.09.2020 12:00:00 16,0 11,0 16 9 WNW - 10 -
27.09.2020 11:00:00 15,4 13,3 8 4 WNW 1001,9 10 0,0
27.09.2020 10:00:00 15,0 14,0 15 8 NW - 6 -
27.09.2020 09:00:00 15,0 15,0 8 4 W - 8 -
27.09.2020 08:00:00 15,4 14,6 4 2 - 1000,4 10 -
27.09.2020 07:00:00 16,0 15,0 8 4 NW - 10 -
27.09.2020 06:00:00 15,0 14,0 9 5 NW - 10 -
27.09.2020 05:00:00 18,0 14,0 21 11 SSW - 10 -
27.09.2020 04:00:00 16,0 15,0 9 5 SW - 10 -
27.09.2020 03:00:00 16,0 13,0 13 7 SW - 10 -
27.09.2020 02:00:00 15,5 14,5 5 3 ESE 1005,2 10 -
27.09.2020 01:00:00 17,0 13,0 8 4 W - 10 -
27.09.2020 00:00:00 18,0 12,0 13 7 W - 10 -
26.09.2020 23:00:00 18,0 11,7 18 10 WNW 1007,6 10 0,0
26.09.2020 22:00:00 18,0 10,0 22 12 WNW - 10 -
26.09.2020 21:00:00 18,0 9,0 24 13 WNW - 10 -
26.09.2020 20:00:00 17,8 7,6 28 15 WNW 1008,5 10 -
26.09.2020 19:00:00 18,0 9,0 26 14 WNW - 10 -
26.09.2020 18:00:00 18,0 7,0 24 13 WNW - 10 -
26.09.2020 17:00:00 18,6 6,7 28 15 WNW 1008,5 10 0,0
26.09.2020 16:00:00 19,0 9,0 28 15 WNW - 10 -
26.09.2020 15:00:00 19,0 9,0 26 14 WNW - 10 -
26.09.2020 14:00:00 19,3 7,9 37 20 WNW 1008,3 10 -
26.09.2020 13:00:00 19,0 8,0 31 17 WNW - 10 -
26.09.2020 12:00:00 19,0 7,0 35 19 WNW - 10 -
26.09.2020 11:00:00 18,1 7,7 31 17 WNW 1008,3 10 0,0
26.09.2020 10:00:00 18,0 7,0 35 19 WNW - 10 -
26.09.2020 09:00:00 18,0 8,0 31 17 WNW - 10 -
26.09.2020 08:00:00 17,1 6,3 31 17 WNW 1006,0 10 -
26.09.2020 07:00:00 17,0 8,0 34 18 WNW - 10 -
26.09.2020 06:00:00 15,0 8,0 34 18 WNW - 10 -
26.09.2020 05:00:00 17,5 8,5 28 15 WNW 1005,9 10 0,0
26.09.2020 04:00:00 18,0 9,0 31 17 WNW - 10 -
26.09.2020 03:00:00 18,0 10,0 34 18 WNW - 10 -
26.09.2020 02:00:00 18,3 9,0 26 14 NW 1005,9 10 -
26.09.2020 01:00:00 19,0 9,0 31 17 WNW - 10 -
26.09.2020 00:00:00 18,0 9,0 26 14 WNW - 10 -
25.09.2020 23:00:00 18,5 8,5 28 15 WNW 1007,9 10 0,0
25.09.2020 22:00:00 19,0 9,0 34 18 WNW - 10 -
25.09.2020 21:00:00 19,0 9,0 35 19 WNW - 10 -
25.09.2020 20:00:00 19,4 9,4 35 19 WNW 1007,3 10 -
25.09.2020 19:00:00 20,0 10,0 31 17 W - 10 -
25.09.2020 18:00:00 20,0 9,0 29 16 WNW - 10 -
25.09.2020 17:00:00 20,2 8,4 21 11 WNW 1007,5 10 0,0
25.09.2020 16:00:00 20,0 9,0 24 13 WNW - 10 -
25.09.2020 15:00:00 19,0 12,0 28 15 WNW - 9 -
25.09.2020 14:00:00 20,5 12,4 18 10 NW 1007,6 10 -
25.09.2020 13:00:00 22,0 14,0 16 9 NNW - 10 -
25.09.2020 12:00:00 22,0 17,0 21 11 NW - 10 -
25.09.2020 11:00:00 23,1 18,1 15 8 WNW 1006,6 10 0,0
25.09.2020 10:00:00 19,0 16,0 - - - - 10 -
25.09.2020 09:00:00 21,0 19,0 8 4 SE - 10 -
25.09.2020 08:00:00 21,4 17,8 15 8 W 1005,9 10 -
25.09.2020 07:00:00 22,0 21,0 16 9 W - 10 -
25.09.2020 06:00:00 25,0 22,0 21 11 WSW - 10 -
25.09.2020 05:00:00 25,1 21,2 29 16 WSW 1007,4 10 0,0
25.09.2020 04:00:00 25,0 21,0 24 13 WSW - 10 -
25.09.2020 03:00:00 25,0 21,0 28 15 WSW - 10 -
25.09.2020 02:00:00 25,4 21,1 29 16 WSW 1009,3 10 -
25.09.2020 01:00:00 25,0 22,0 31 17 SW - 10 -
25.09.2020 00:00:00 25,0 23,0 31 17 SW - 10 -
24.09.2020 23:00:00 24,9 22,7 24 13 SSW 1010,4 10 0,0
24.09.2020 22:00:00 25,0 23,0 24 13 SSW - 10 -
24.09.2020 21:00:00 25,0 23,0 18 10 SSW - 10 -
24.09.2020 20:00:00 24,7 22,4 26 14 SSW 1011,3 10 -
24.09.2020 19:00:00 25,0 22,0 24 13 S - 10 -
24.09.2020 18:00:00 26,0 22,0 22 12 SSW - 10 -
24.09.2020 17:00:00 26,3 22,9 28 15 SSW 1012,0 10 0,0
24.09.2020 16:00:00 27,0 23,0 26 14 SSW - 10 -
24.09.2020 15:00:00 27,0 23,0 31 17 S - 10 -
24.09.2020 14:00:00 26,8 23,0 31 17 SSW 1013,2 10 -
24.09.2020 13:00:00 26,0 22,0 26 14 S - 10 -
24.09.2020 12:00:00 23,0 19,0 21 11 S - 10 -
24.09.2020 11:00:00 25,5 22,1 26 14 S 1014,2 10 0,0
24.09.2020 10:00:00 25,0 22,0 24 13 S - 10 -
24.09.2020 09:00:00 24,0 22,0 22 12 S - 10 -
24.09.2020 08:00:00 23,7 22,0 11 6 SSW 1012,5 10 -
24.09.2020 07:00:00 24,0 22,0 15 8 SSW - 10 -
24.09.2020 06:00:00 22,0 21,0 8 4 SW - 10 -
24.09.2020 05:00:00 22,3 21,1 5 3 SSW 1012,6 10 0,0
24.09.2020 04:00:00 21,0 20,0 2 1 - - 10 -
24.09.2020 03:00:00 20,0 19,0 2 1 - - 10 -
24.09.2020 02:00:00 19,7 19,2 8 4 S 1013,4 10 -
24.09.2020 01:00:00 20,0 19,0 5 3 NNE - 10 -
24.09.2020 00:00:00 20,0 19,0 8 4 NNE - 10 -
23.09.2020 23:00:00 20,3 19,5 5 3 NNE 1013,4 10 0,0
23.09.2020 22:00:00 21,0 20,0 8 4 ESE - 10 -
23.09.2020 21:00:00 22,0 21,0 8 4 S - 10 -
23.09.2020 20:00:00 21,9 20,3 9 5 ESE 1012,5 10 -
23.09.2020 19:00:00 23,0 21,0 4 2 - - 10 -
23.09.2020 18:00:00 25,0 21,0 15 8 WSW - 10 -
23.09.2020 17:00:00 25,9 21,0 21 11 SW 1012,6 10 0,0
23.09.2020 16:00:00 26,0 20,0 21 11 WSW - 10 -
23.09.2020 15:00:00 27,0 18,0 22 12 SW - 10 -
23.09.2020 14:00:00 26,6 19,3 18 10 WSW 1013,0 10 -
23.09.2020 13:00:00 25,0 19,0 15 8 SW - 10 -
23.09.2020 12:00:00 25,0 20,0 15 8 SSW - 10 -
23.09.2020 11:00:00 24,6 20,8 8 4 SSE 1013,8 10 0,0
23.09.2020 10:00:00 21,0 18,0 2 1 - - 10 -
23.09.2020 09:00:00 19,0 18,0 - - - - 10 -
23.09.2020 08:00:00 18,6 17,7 - - - 1012,9 5 -
23.09.2020 07:00:00 18,0 17,0 11 6 NNE - 10 -
23.09.2020 06:00:00 19,0 17,0 21 11 S - 9 -
23.09.2020 05:00:00 20,6 19,4 5 3 NNE 1012,7 10 0,0
23.09.2020 04:00:00 21,0 20,0 4 2 S - 10 -
23.09.2020 03:00:00 22,0 19,0 4 2 - - 10 -

tt = temperature
td = dewpoint
ff = wind speed
dd = wind direction
ppp = reduced air pressure
vv = visibility
rr = precipitation

Next stations